Hourly Data Report for February 05, 2021

KUGAARUK CLIMATE
NUNAVUT
Current Station Operator: ECCC - MSC

68°32'15.060" N
89°47'47.020" W
15.80 m
2303094
71407
NBB

Download Data

Hourly Data (February 2021)
Hourly Data Report for February 5, 2021
TIME
LST
Temp Definition
°C
Dew Point Definition
°C
Rel Hum Definition
%
Precip. Amount Definition
mm

Wind Dir Definition
10's deg

Wind Spd Definition
km/h
Visibility Definition
km
Stn Press Definition
kPa
Hmdx Definition


Wind Chill Definition


Weather Definition


00:00 -35.7 -39.3 70 0.0 8 8   101.94   -45 LegendNANA
01:00 -35.4 -38.9 70 0.2 7 9   101.91   -45 LegendNANA
02:00 -35.6 -39.1 70 0.0 5 9   101.88   -45 LegendNANA
03:00 -34.4 -37.9 70 0.0 7 10   101.86   -44 LegendNANA
04:00 -34.4 -37.9 70 0.0 6 12   101.81   -45 LegendNANA
05:00 -34.2 -37.7 71 0.0 3 14   101.76   -46 LegendNANA
06:00 -33.0 -36.5 71 0.0 5 11   101.72   -43 LegendNANA
07:00 -33.2 -36.7 71 0.0 8 11   101.64   -44 LegendNANA
08:00 -33.5 -37.0 71 0.0 7 13   101.61   -45 LegendNANA
09:00 -33.0 -36.5 71 0.0 6 13   101.58   -44 LegendNANA
10:00 -32.4 -35.9 71 0.0 2 31   101.50   -49 LegendNANA
11:00 -32.0 -35.6 71 0.0 1 31   101.47   -48 LegendNANA
12:00 -31.5 -34.9 71 0.0 1 34   101.35   -48 LegendNANA
13:00 -30.9 -34.4 72 0.0 1 32   101.34   -47 LegendNANA
14:00 -30.4 -33.8 73 0.0 1 28   101.32   -46 LegendNANA
15:00 -30.1 -33.3 73 0.0 1 36   101.24   -47 LegendNANA
16:00 -29.8 -33.0 74 0.0 1 27   101.25   -45 LegendNANA
17:00 -29.6 -32.8 74 0.0 1 30   101.23   -45 LegendNANA
18:00 -29.6 -32.8 74 0.0 5 6   101.28   -36 LegendNANA
19:00 -29.3 -32.5 74 0.0 23 1   101.26   -30 LegendNANA
20:00 -28.8 -32.0 73 0.0 1 8   101.30   -37 LegendNANA
21:00 -28.7 -31.9 74 0.0 36 7   101.27   -36 LegendNANA
22:00 -29.5 -32.8 73 0.0 10 2   101.29   -32 LegendNANA
23:00 -30.5 -33.8 73 0.0 24 4   101.34   -35 LegendNANA

Notes on Data Quality.

Legend

  • E = Estimated
  • M = Missing
  • NA = Not Available*
  • [empty] = Indicates an unobserved value
Date modified: